Flag for Germany Weather past 2 weeks in Hückelhoven, North Rhine-Westphalia, Germany

Now
70 °F

Partly sunny.


Feels Like: 70 °F
Forecast: 59 / 70 °F
Wind: 8 mph from Southwest

Location: Geilenkirchen Airport

Current Time: Aug 28, 2014 at 1:59:05 PM

Latest Report: Aug 28, 2014 at 12:50 PM


Visibility: N/A

Pressure: 29.98 "Hg

Humidity: 64%

Dew point: 57 °F

Location of HückelhovenLocation

Historic Weather in Hückelhoven — Graph

°F

Hückelhoven temperature yesterday

Maximum temperature yesterday: 70 °F (at 5:50 PM)
Minimum temperature yesterday: 50 °F (at 6:50 AM)
Average temperature yesterday: 60 °F

Past Weeks' High & Low Weather Summary

 TemperatureHumidityPressure
High72 °F (Aug 13, 5:50 PM)100% (Aug 25, 9:50 PM)30.04 "Hg (Aug 25, 9:50 PM)
Low50 °F (Aug 21, 7:50 AM)0% (Aug 14, 3:50 AM)29.62 "Hg (Aug 26, 3:50 AM)
Average60 °F82%29.86 "Hg
* Reported Aug 13 12:50 PM — Aug 28 12:50 PM, Hückelhoven, Weather by CustomWeather, © 2014

Note: Actual official high and low records may vary slightly from our data, if they occured in-between our weather recording intervals... More about our weather records

Advertising

Hückelhoven weather history for previous 24 hours

 ConditionsComfort  
Time TempWeatherWind HumidityBarometerVisibility
12:50 PM
Aug 28
70 °FPartly sunny.8 mph64%29.98 "HgN/A
11:50 AM70 °FPartly sunny.9 mph64%29.98 "HgN/A
10:50 AM70 °FScattered clouds.7 mph64%29.98 "HgN/A
9:50 AM68 °FSunny.7 mph69%30.01 "Hg10 mi
8:50 AM64 °FSunny.5 mph83%30.01 "Hg10 mi
7:50 AM59 °FSunny.3 mph94%30.01 "Hg10 mi
6:50 AM57 °FClear.2 mph94%29.98 "Hg10 mi
5:50 AM57 °FClear.3 mph94%30.01 "Hg10 mi
4:50 AM57 °FClear.2 mph94%30.01 "Hg10 mi
3:50 AM59 °FClear.2 mph88%30.01 "Hg10 mi
2:50 AM59 °FClear.2 mph88%30.01 "Hg10 mi
1:50 AM61 °FPassing clouds.3 mph83%30.01 "HgN/A
12:50 AM61 °FPartly cloudy.3 mph83%30.01 "HgN/A
11:50 PM
Aug 27
61 °FClear.3 mph83%30.04 "Hg10 mi
10:50 PM63 °FClear.5 mph77%30.01 "Hg10 mi
6:50 PM68 °FSunny.6 mph60%30.01 "Hg10 mi
5:50 PM70 °FPassing clouds.9 mph57%30.01 "HgN/A
4:50 PM68 °FPassing clouds.7 mph64%30.01 "HgN/A
3:50 PM68 °FPassing clouds.9 mph60%30.01 "HgN/A
2:50 PM66 °FPassing clouds.12 mph68%30.04 "HgN/A
1:50 PM66 °FPassing clouds.14 mph64%30.04 "HgN/A
Weather by CustomWeather, © 2014

See weather overviewHow to use our weather pages